• Em Portugal
  • Lista de países
  • Para 7 dias
  • Temperatura da água
  • Mapas de satélite
  • Mapa do tempo
  • Widgets de tempo
  • user-avatar
    Iniciar Sessão

    Previsão horária em Bursa

    Hoje, 20 Setembro, Quinta-feira

    Tempo Temperatura Precipitação Vento Pressão Humidade
    00:00 +17°C° 0 mm 2 m/s 733 mmHg 85%
    01:00 +16°C° 0 mm 2 m/s 733 mmHg 85%
    02:00 +16°C° 0 mm 2 m/s 733 mmHg 86%
    03:00 +16°C° 0 mm 2 m/s 733 mmHg 85%
    04:00 +16°C° 0 mm 2 m/s 732 mmHg 85%
    05:00 +15°C° 0 mm 2 m/s 732 mmHg 85%
    06:00 +17°C° 0 mm 2 m/s 733 mmHg 78%
    07:00 +19°C° 0 mm 2 m/s 733 mmHg 70%
    08:00 +20°C° 0 mm 2 m/s 733 mmHg 63%
    09:00 +23°C° 0 mm 2 m/s 733 mmHg 55%
    10:00 +25°C° 0 mm 3 m/s 733 mmHg 47%
    11:00 +27°C° 0 mm 3 m/s 733 mmHg 40%
    12:00 +28°C° 0 mm 3 m/s 732 mmHg 38%
    13:00 +28°C° 0 mm 4 m/s 732 mmHg 37%
    14:00 +29°C° 0 mm 4 m/s 732 mmHg 36%
    15:00 +28°C° 0 mm 4 m/s 732 mmHg 40%
    16:00 +27°C° 0 mm 4 m/s 731 mmHg 45%
    17:00 +26°C° 0 mm 4 m/s 731 mmHg 49%
    18:00 +23°C° 0 mm 4 m/s 731 mmHg 59%
    19:00 +21°C° 0 mm 3 m/s 732 mmHg 69%
    20:00 +19°C° 0 mm 2 m/s 732 mmHg 79%
    21:00 +18°C° 0 mm 2 m/s 732 mmHg 81%
    22:00 +17°C° 0 mm 2 m/s 732 mmHg 84%
    23:00 +17°C° 0 mm 2 m/s 732 mmHg 86%

    Amanhã, 21 Setembro, Sexta-feira

    Tempo Temperatura Precipitação Vento Pressão Humidade
    00:00 +17°C° 0 mm 2 m/s 732 mmHg 86%
    01:00 +16°C° 0 mm 1 m/s 732 mmHg 86%
    02:00 +16°C° 0 mm 1 m/s 732 mmHg 86%
    03:00 +16°C° 0 mm 1 m/s 732 mmHg 86%
    04:00 +16°C° 0 mm 1 m/s 731 mmHg 85%
    05:00 +15°C° 0 mm 1 m/s 731 mmHg 84%
    06:00 +18°C° 0 mm 1 m/s 732 mmHg 77%
    07:00 +20°C° 0 mm 1 m/s 732 mmHg 69%
    08:00 +22°C° 0 mm 1 m/s 732 mmHg 62%
    09:00 +23°C° 0 mm 2 m/s 732 mmHg 55%
    10:00 +25°C° 0 mm 2 m/s 732 mmHg 47%
    11:00 +27°C° 0 mm 3 m/s 732 mmHg 40%
    12:00 +28°C° 0 mm 3 m/s 732 mmHg 38%
    13:00 +29°C° 0 mm 3 m/s 732 mmHg 37%
    14:00 +29°C° 0 mm 4 m/s 731 mmHg 35%
    15:00 +28°C° 0 mm 4 m/s 731 mmHg 40%
    16:00 +28°C° 0 mm 4 m/s 731 mmHg 45%
    17:00 +27°C° 0 mm 4 m/s 731 mmHg 50%
    18:00 +24°C° 0 mm 3 m/s 732 mmHg 59%
    19:00 +21°C° 0 mm 3 m/s 732 mmHg 69%
    20:00 +19°C° 0 mm 2 m/s 732 mmHg 79%
    21:00 +19°C° 0 mm 2 m/s 732 mmHg 81%
    22:00 +18°C° 0 mm 2 m/s 732 mmHg 82%
    23:00 +18°C° 0 mm 2 m/s 732 mmHg 84%

    Depois de amanhã, 22 Setembro, Sábado

    Tempo Temperatura Precipitação Vento Pressão Humidade
    00:00 +18°C° 0 mm 2 m/s 732 mmHg 84%
    01:00 +17°C° 0 mm 2 m/s 732 mmHg 83%
    02:00 +18°C° 0 mm 1 m/s 732 mmHg 83%
    03:00 +18°C° 0 mm 1 m/s 732 mmHg 83%
    04:00 +18°C° 0 mm 1 m/s 732 mmHg 83%
    05:00 +16°C° 0 mm 1 m/s 732 mmHg 83%
    06:00 +19°C° 0 mm 1 m/s 732 mmHg 76%
    07:00 +21°C° 0 mm 1 m/s 732 mmHg 69%
    08:00 +22°C° 0 mm 1 m/s 733 mmHg 62%
    09:00 +24°C° 0 mm 2 m/s 733 mmHg 53%
    10:00 +26°C° 0 mm 2 m/s 733 mmHg 45%
    11:00 +28°C° 0 mm 2 m/s 733 mmHg 36%
    12:00 +29°C° 0 mm 3 m/s 732 mmHg 34%
    13:00 +29°C° 0 mm 3 m/s 732 mmHg 33%
    14:00 +30°C° 0 mm 3 m/s 732 mmHg 31%
    15:00 +29°C° 0 mm 3 m/s 732 mmHg 36%
    16:00 +28°C° 0 mm 3 m/s 732 mmHg 41%
    17:00 +27°C° 0 mm 3 m/s 732 mmHg 46%
    18:00 +25°C° 0 mm 3 m/s 732 mmHg 56%
    19:00 +23°C° 0 mm 2 m/s 732 mmHg 66%
    20:00 +19°C° 0 mm 2 m/s 732 mmHg 76%
    21:00 +20°C° 0 mm 1 m/s 733 mmHg 77%
    22:00 +20°C° 0 mm 1 m/s 733 mmHg 79%
    23:00 +19°C° 0 mm 1 m/s 733 mmHg 81%

    23 Setembro, Domingo

    Tempo Temperatura Precipitação Vento Pressão Humidade
    00:00 +19°C° 0 mm 1 m/s 733 mmHg 81%
    01:00 +19°C° 0 mm 1 m/s 733 mmHg 81%
    02:00 +18°C° 0 mm 1 m/s 733 mmHg 80%
    03:00 +18°C° 0 mm 1 m/s 733 mmHg 79%
    04:00 +18°C° 0 mm 1 m/s 733 mmHg 78%
    05:00 +16°C° 0 mm 1 m/s 733 mmHg 77%
    06:00 +19°C° 0 mm 1 m/s 733 mmHg 69%
    07:00 +21°C° 0 mm 1 m/s 733 mmHg 61%
    08:00 +23°C° 0 mm 1 m/s 734 mmHg 52%
    09:00 +25°C° 0 mm 1 m/s 734 mmHg 46%
    10:00 +27°C° 0 mm 2 m/s 734 mmHg 39%
    11:00 +29°C° 0 mm 2 m/s 734 mmHg 32%
    12:00 +29°C° 0 mm 3 m/s 734 mmHg 31%
    13:00 +30°C° 0 mm 3 m/s 734 mmHg 30%
    14:00 +32°C° 0 mm 4 m/s 733 mmHg 29%
    15:00 +29°C° 0 mm 3 m/s 733 mmHg 33%
    16:00 +28°C° 0 mm 3 m/s 733 mmHg 38%
    17:00 +27°C° 0 mm 3 m/s 733 mmHg 42%
    18:00 +25°C° 0 mm 3 m/s 733 mmHg 49%
    19:00 +23°C° 0 mm 2 m/s 734 mmHg 57%
    20:00 +20°C° 0 mm 2 m/s 734 mmHg 64%
    21:00 +19°C° 0 mm 2 m/s 734 mmHg 66%
    22:00 +19°C° 0 mm 2 m/s 734 mmHg 67%
    23:00 +18°C° 0 mm 2 m/s 734 mmHg 69%

    24 Setembro, Segunda-feira

    Tempo Temperatura Precipitação Vento Pressão Humidade
    00:00 +18°C° 0 mm 2 m/s 733 mmHg 67%
    01:00 +18°C° 0 mm 2 m/s 733 mmHg 66%
    02:00 +18°C° 0 mm 2 m/s 733 mmHg 64%
    03:00 +18°C° 0 mm 2 m/s 732 mmHg 62%
    04:00 +17°C° 0 mm 2 m/s 732 mmHg 59%
    05:00 +17°C° 0 mm 2 m/s 732 mmHg 57%
    06:00 +19°C° 0 mm 2 m/s 732 mmHg 52%
    07:00 +21°C° 0 mm 2 m/s 731 mmHg 47%
    08:00 +24°C° 0 mm 2 m/s 731 mmHg 41%
    09:00 +27°C° 0 mm 2 m/s 731 mmHg 35%
    10:00 +29°C° 0 mm 2 m/s 731 mmHg 28%
    11:00 +32°C° 0 mm 1 m/s 730 mmHg 22%
    12:00 +34°C° 0 mm 2 m/s 730 mmHg 20%
    13:00 +35°C° 0 mm 2 m/s 729 mmHg 19%
    14:00 +35°C° 0 mm 2 m/s 729 mmHg 17%
    15:00 +34°C° 0 mm 2 m/s 728 mmHg 22%
    16:00 +32°C° 0 mm 2 m/s 728 mmHg 26%
    17:00 +30°C° 0 mm 1 m/s 728 mmHg 31%
    18:00 +28°C° 0 mm 1 m/s 728 mmHg 34%
    19:00 +26°C° 0 mm 1 m/s 728 mmHg 37%
    20:00 +24°C° 0 mm 1 m/s 728 mmHg 40%
    21:00 +24°C° 0 mm 1 m/s 728 mmHg 41%
    22:00 +23°C° 0 mm 1 m/s 729 mmHg 41%
    23:00 +23°C° 0 mm 1 m/s 729 mmHg 41%

    25 Setembro, Terça-feira

    Tempo Temperatura Precipitação Vento Pressão Humidade
    00:00 +22°C° 0 mm 1 m/s 729 mmHg 42%
    01:00 +22°C° 0 mm 1 m/s 729 mmHg 43%
    02:00 +21°C° 0 mm 1 m/s 729 mmHg 44%
    03:00 +19°C° 0 mm 2 m/s 730 mmHg 51%
    04:00 +18°C° 0 mm 3 m/s 730 mmHg 58%
    05:00 +18°C° 0 mm 3 m/s 730 mmHg 64%
    06:00 +18°C° 0 mm 4 m/s 731 mmHg 66%
    07:00 +19°C° 0 mm 4 m/s 731 mmHg 68%
    08:00 +20°C° 0 mm 4 m/s 731 mmHg 69%
    09:00 +21°C° 0 mm 4 m/s 731 mmHg 67%
    10:00 +22°C° 0 mm 4 m/s 731 mmHg 65%
    11:00 +22°C° 0 mm 4 m/s 731 mmHg 63%
    12:00 +22°C° 0 mm 5 m/s 731 mmHg 64%
    13:00 +22°C° 0 mm 5 m/s 731 mmHg 65%
    14:00 +22°C° 0 mm 5 m/s 730 mmHg 65%
    15:00 +21°C° 0 mm 5 m/s 730 mmHg 68%
    16:00 +20°C° 0 mm 5 m/s 730 mmHg 70%
    17:00 +19°C° 0 mm 5 m/s 730 mmHg 72%
    18:00 +17°C° 0 mm 5 m/s 731 mmHg 75%
    19:00 +17°C° 0 mm 4 m/s 731 mmHg 78%
    20:00 +17°C° 0 mm 4 m/s 731 mmHg 81%
    21:00 +15°C° 0.1 mm 4 m/s 731 mmHg 82%
    22:00 +15°C° 0.1 mm 4 m/s 731 mmHg 83%
    23:00 +15°C° 0.1 mm 4 m/s 731 mmHg 84%
    Mostrar mais